This is the latest recevied weather packets stored in our database for station/object YO8PIC-12. If no packets are shown the sender has not sent any weather packets the latest 10 day(s).
| Time | Temp. | Humidity | Pressure | Rain* | Wind** | Luminosity | Snow |
|---|---|---|---|---|---|---|---|
| 1787599836 | 23.89° C | 37% | 1023.9 hPa | - | - | - | - |
| 1787599237 | 24.44° C | 36% | 1023.8 hPa | - | - | - | - |
| 1787598638 | 24.44° C | 36% | 1023.9 hPa | - | - | - | - |
| 1787598037 | 24.44° C | 37% | 1023.9 hPa | - | - | - | - |
| 1787597437 | 25° C | 36% | 1023.9 hPa | - | - | - | - |
| 1787596837 | 25.56° C | 36% | 1023.9 hPa | - | - | - | - |
| 1787596237 | 25.56° C | 36% | 1023.8 hPa | - | - | - | - |
| 1787595636 | 26.11° C | 34% | 1023.7 hPa | - | - | - | - |
| 1787595036 | 27.22° C | 31% | 1023.5 hPa | - | - | - | - |
| 1787594436 | 27.22° C | 30% | 1023.4 hPa | - | - | - | - |
| 1787593836 | 27.22° C | 30% | 1023.5 hPa | - | - | - | - |
| 1787593236 | 26.67° C | 30% | 1023.3 hPa | - | - | - | - |
| 1787592637 | 27.22° C | 30% | 1023 hPa | - | - | - | - |
| 1787592036 | 27.78° C | 29% | 1022.9 hPa | - | - | - | - |
| 1787591437 | 27.78° C | 29% | 1022.9 hPa | - | - | - | - |
| 1787590836 | 27.78° C | 29% | 1023 hPa | - | - | - | - |
| 1787590236 | 27.22° C | 30% | 1022.9 hPa | - | - | - | - |
| 1787589636 | 26.67° C | 31% | 1022.9 hPa | - | - | - | - |
| 1787589036 | 26.67° C | 31% | 1022.8 hPa | - | - | - | - |
| 1787588436 | 26.67° C | 31% | 1022.7 hPa | - | - | - | - |
| 1787587836 | 26.67° C | 30% | 1022.8 hPa | - | - | - | - |
| 1787587236 | 27.22° C | 29% | 1022.9 hPa | - | - | - | - |
| 1787586636 | 27.78° C | 28% | 1023 hPa | - | - | - | - |
| 1787586036 | 28.33° C | 27% | 1023 hPa | - | - | - | - |
| 1787585438 | 29.44° C | 25% | 1022.8 hPa | - | - | - | - |
* Rain since midnight (hover to see other rain measurements)
** Current wind speed in m/s (hover to see current wind gust speed)